Tracking 30261 objects as of 18-Feb-2025
HD Live streaming from Space Station
objects crossing your sky now

SL-12 R/B(2)

Track SL-12 R/B(2) now!


NORAD ID: 14951
Int'l Code: 1984-031F
Perigee: 35,974.2 km
Apogee: 36,093.2 km
Inclination: 10.0 °
Period: 1,448.4 minutes
Semi major axis: 42404 km
RCS: 2.1273 m2 (large)
Launch date: March 29, 1984
Source: Commonwealth of Independent States (former USSR) (CIS)
Launch site: TYURATAM MISSILE AND SPACE COMPLEX (TTMTR)

Note: This is a ROCKET BODY
Your satellite tracking list
Your tracking list is empty




NASA's NSSDC Master Catalog

Two Line Element Set (TLE):
1 14951U 84031F   25047.21160291  .00000038  00000-0  00000-0 0  9997
2 14951  10.0025 315.8574 0014032 244.5694 271.8075  0.99421965114974
Source of the keplerian elements: AFSPC